Time,TemperatureF,DewpointF,PressureIn,WindDirection,WindDirectionDegrees,WindSpeedMPH,WindSpeedGustMPH,Humidity,HourlyPrecipIn,Conditions,Clouds,dailyrainin,SoftwareType,DateUTC
2013-01-17 00:00:00,23.2,13.9,30.42,South,178,0.0,0.0,67,0.00,,,0.00,Wunderground v.1.15,2013-01-17 07:00:00,
2013-01-17 00:10:00,22.9,13.6,30.42,South,178,0.0,0.0,67,0.00,,,0.00,Wunderground v.1.15,2013-01-17 07:10:00,
2013-01-17 00:20:00,22.4,13.1,30.41,South,178,0.0,0.0,67,0.00,,,0.00,Wunderground v.1.15,2013-01-17 07:20:00,
2013-01-17 00:30:00,22.2,13.6,30.42,South,178,0.0,0.0,69,0.00,,,0.00,Wunderground v.1.15,2013-01-17 07:30:00,
2013-01-17 03:35:00,18.1,11.2,30.47,South,178,0.0,1.0,74,0.00,,,0.00,Wunderground v.1.15,2013-01-17 10:35:00,
2013-01-17 03:45:00,18.1,10.9,30.48,South,178,0.0,0.0,73,0.00,,,0.00,Wunderground v.1.15,2013-01-17 10:45:00,
2013-01-17 03:55:00,17.8,10.6,30.48,South,178,0.0,0.0,73,0.00,,,0.00,Wunderground v.1.15,2013-01-17 10:55:00,
2013-01-17 04:00:00,17.7,10.5,30.48,South,178,0.0,0.0,73,0.00,,,0.00,Wunderground v.1.15,2013-01-17 11:00:00,
2013-01-17 04:10:00,17.8,10.9,30.48,South,178,0.0,0.0,74,0.00,,,0.00,Wunderground v.1.15,2013-01-17 11:10:00,
2013-01-17 04:20:00,17.5,10.6,30.50,South,178,0.0,0.0,74,0.00,,,0.00,Wunderground v.1.15,2013-01-17 11:20:00,
2013-01-17 04:25:00,17.8,10.9,30.50,South,178,0.0,0.0,74,0.00,,,0.00,Wunderground v.1.15,2013-01-17 11:25:00,
2013-01-17 04:35:00,17.8,10.9,30.51,South,178,0.0,0.0,74,0.00,,,0.00,Wunderground v.1.15,2013-01-17 11:35:00,
2013-01-17 04:45:00,17.8,10.9,30.51,South,178,0.0,0.0,74,0.00,,,0.00,Wunderground v.1.15,2013-01-17 11:45:00,
2013-01-17 04:50:00,17.7,10.5,30.51,South,178,1.0,1.0,73,0.00,,,0.00,Wunderground v.1.15,2013-01-17 11:50:00,
2013-01-17 17:00:00,51.0,10.1,30.38,ENE,71,0.0,0.0,19,0.00,,,0.00,Wunderground v.1.15,2013-01-18 00:00:00,
2013-01-17 17:10:00,46.7,8.8,30.38,ENE,71,0.0,0.0,21,0.00,,,0.00,Wunderground v.1.15,2013-01-18 00:10:00,
2013-01-17 17:15:00,44.9,9.3,30.42,ENE,71,0.0,0.0,23,0.00,,,0.00,Wunderground v.1.15,2013-01-18 00:15:00,
2013-01-17 17:40:00,38.5,11.1,30.45,ENE,71,1.0,2.0,32,0.00,,,0.00,Wunderground v.1.15,2013-01-18 00:40:00,
2013-01-17 17:45:00,38.3,11.0,30.46,ENE,71,1.0,2.0,32,0.00,,,0.00,Wunderground v.1.15,2013-01-18 00:45:00,
2013-01-17 17:50:00,37.9,10.6,30.46,ENE,71,0.0,0.0,32,0.00,,,0.00,Wunderground v.1.15,2013-01-18 00:50:00,
2013-01-17 18:00:00,36.9,11.1,30.47,ENE,71,0.0,0.0,34,0.00,,,0.00,Wunderground v.1.15,2013-01-18 01:00:00,
2013-01-17 18:05:00,36.5,11.4,30.47,ENE,71,0.0,0.0,35,0.00,,,0.00,Wunderground v.1.15,2013-01-18 01:05:00,
2013-01-17 18:15:00,34.6,11.0,30.48,ENE,71,0.0,0.0,37,0.00,,,0.00,Wunderground v.1.15,2013-01-18 01:15:00,
2013-01-17 18:25:00,33.7,11.3,30.48,ENE,71,0.0,0.0,39,0.00,,,0.00,Wunderground v.1.15,2013-01-18 01:25:00,